Vorticity
7 5 5 7 8 9 9 9 11 10 7 5 4 5 4 4 3 -0 -0 6 9 8 7 5 -2 -5 0 5 7 9 12 19 30 36 36 34 28 20 20 22 16 7 4 13 21 14 5 3 3 3 3 4 7 9 8 7 5 6 7 5 4 7 8 8 11 12 9 7 7 5 6 8 8 9 8 6 5 4 5 5 5 6 5 4 4
12 10 9 10 10 9 10 11 10 6 3 1 3 3 3 6 4 -1 2 3 -7 -7 1 2 1 3 5 8 14 19 24 25 23 27 31 31 33 32 29 25 18 9 4 14 28 26 14 7 1 -1 -0 1 4 8 10 10 7 5 6 4 3 6 9 9 12 10 2 5 12 11 9 9 9 11 9 7 7 6 6 6 6 7 6 4 5
14 12 10 11 11 10 9 8 7 6 5 1 2 3 3 4 4 4 11 12 4 3 4 -1 1 2 -2 7 15 12 18 19 8 3 -3 -9 -1 10 12 12 11 11 14 21 31 29 20 15 10 4 3 5 7 8 10 12 10 8 7 6 6 8 10 12 12 9 1 1 9 12 11 10 9 9 10 8 8 7 6 6 6 7 5 3 6
14 14 12 12 12 10 6 6 7 5 3 2 6 8 3 2 7 11 11 7 6 6 -3 -7 6 8 0 10 16 7 10 15 6 -2 -9 -12 -2 3 2 3 3 7 13 19 27 30 23 15 12 10 8 7 7 7 10 13 13 11 9 9 11 8 7 9 7 3 -3 -2 4 6 5 9 10 8 8 9 10 8 6 6 7 6 4 4 7
14 15 13 11 10 7 6 6 4 1 1 6 9 6 3 4 3 2 1 1 8 13 11 15 27 25 13 13 14 6 7 12 10 8 5 4 8 9 8 8 5 7 12 16 21 24 23 17 12 11 10 7 6 7 10 12 12 11 9 9 12 9 8 13 13 7 -0 -3 2 4 0 2 6 4 3 8 12 10 7 8 8 5 1 3 7
16 16 10 8 8 7 5 0 -1 2 4 6 8 7 11 15 7 5 12 17 20 23 21 18 15 12 9 7 6 5 7 9 7 6 7 7 8 10 15 17 13 10 11 16 18 15 17 18 13 11 10 10 13 14 12 11 9 10 10 9 9 4 -0 2 5 8 8 1 -0 5 4 2 3 1 -1 3 9 9 8 9 8 3 2 5 8
16 13 5 5 6 3 -3 -6 1 9 5 1 5 6 5 6 2 5 12 10 7 8 6 3 -1 0 4 7 9 9 7 6 7 6 6 7 9 14 19 19 13 6 7 16 20 15 13 14 16 18 13 6 9 12 11 10 8 6 6 9 11 5 -5 -9 -10 -5 0 -2 -3 2 1 -1 -0 -2 -3 3 9 10 11 10 4 2 7 10 12
12 9 3 3 5 -1 -5 0 9 11 6 3 4 2 -1 0 2 6 8 4 3 4 4 3 1 -2 -2 2 11 17 14 8 6 7 6 6 8 13 16 13 7 4 8 16 21 19 17 17 19 21 17 12 12 11 9 12 13 9 5 4 6 6 1 -3 -5 -3 -2 -5 -6 -3 -4 -5 -2 1 2 6 10 12 13 9 1 3 9 13 15
9 7 3 2 4 3 4 10 12 7 5 3 2 3 7 10 10 12 12 9 5 3 2 3 3 0 -3 -4 -1 10 19 17 9 5 6 7 8 10 11 10 8 8 9 15 20 21 22 22 19 19 24 22 11 4 6 11 13 10 5 4 3 4 5 3 -5 -9 -8 -10 -12 -5 2 3 3 6 7 7 7 7 8 7 6 9 12 14 16
6 6 6 5 6 7 7 8 7 3 1 0 1 6 10 10 9 10 12 11 8 6 4 4 3 2 2 1 -1 1 11 20 17 10 7 7 8 10 10 9 10 10 9 15 20 19 22 25 19 18 21 12 -9 -15 -6 7 16 15 11 14 11 5 14 26 17 1 -4 -4 -3 3 8 7 6 8 9 7 6 4 4 7 10 12 13 15 15
6 6 7 7 7 9 9 8 7 4 1 -0 0 3 5 6 7 7 8 8 5 3 2 1 1 1 3 6 5 1 2 13 21 14 6 7 8 10 12 11 10 9 10 15 19 17 17 20 18 16 18 17 13 9 3 4 15 19 17 21 20 8 12 27 30 23 18 14 9 8 8 7 8 10 9 6 6 8 9 11 11 12 15 17 15
4 3 7 9 13 19 20 17 13 6 2 -0 1 2 2 4 7 7 7 8 5 2 1 -0 -1 -0 1 1 3 6 4 7 16 15 6 6 8 9 13 13 9 7 9 13 16 16 16 18 20 20 17 18 23 25 19 12 13 14 13 18 21 19 16 17 19 22 20 13 5 3 6 9 8 7 6 4 6 11 13 12 13 16 18 17 17
5 8 13 13 13 13 12 10 5 -0 -2 -1 2 4 3 5 7 5 5 4 2 2 1 1 1 -0 1 1 0 6 9 6 13 17 8 5 10 12 14 14 9 7 8 10 12 16 18 17 16 16 16 15 16 18 19 18 15 14 15 16 17 20 21 18 14 12 7 3 2 3 7 9 5 5 6 5 7 8 7 9 14 18 18 17 17
7 14 19 12 3 -1 -2 -2 -4 -7 -4 -1 2 3 4 5 4 2 4 2 3 5 2 1 3 -1 2 5 -1 5 14 12 13 16 9 6 12 13 12 12 8 6 9 11 12 13 14 11 8 10 14 15 15 12 8 6 9 11 12 13 13 15 15 11 7 5 3 2 4 5 6 7 5 4 5 6 8 9 9 14 19 19 17 16 16
3 5 6 2 -0 0 2 2 0 -1 -1 0 1 2 2 3 0 -2 1 1 4 9 8 7 5 1 3 4 1 12 25 18 11 15 13 9 11 11 10 9 8 8 10 11 12 15 17 17 15 12 8 5 5 5 3 3 6 7 8 10 12 13 13 7 2 1 3 5 6 5 5 6 6 7 7 7 8 8 11 17 20 17 16 16 15
-3 -7 -7 -2 3 4 3 3 3 4 5 3 2 2 1 2 2 -0 -0 2 3 6 8 11 11 8 7 4 8 26 33 18 11 16 14 9 9 10 8 8 10 11 11 13 17 20 18 11 7 3 -3 -2 5 8 7 7 8 10 12 12 12 12 11 8 3 1 2 4 6 5 5 7 8 7 9 11 11 10 14 19 19 16 16 16 15
-6 -5 -2 3 8 8 7 6 2 1 4 2 0 2 4 4 4 1 -1 2 6 6 6 9 11 12 12 11 17 27 23 12 12 17 13 8 9 10 9 11 11 8 15 25 22 11 2 -6 -7 -3 -2 3 11 12 10 12 12 11 11 9 9 10 9 9 7 6 6 6 3 4 7 10 9 8 10 15 16 16 18 18 15 15 16 16 14
2 3 1 2 4 4 8 12 7 -0 -0 1 -0 2 5 5 5 1 -2 2 9 10 10 11 14 17 17 16 17 16 11 12 17 16 11 8 10 11 10 11 8 4 19 31 13 -7 -7 -7 -8 0 6 8 13 13 13 14 11 8 8 7 9 10 10 11 11 9 10 8 5 6 9 9 9 11 15 18 19 19 19 16 15 16 16 15 12
3 1 0 2 2 1 5 13 14 6 1 -1 -2 1 5 6 3 -2 -2 4 10 13 16 19 21 20 16 14 14 12 12 17 16 11 9 8 9 12 10 9 8 4 13 18 0 -12 -4 1 3 11 13 10 11 13 13 12 7 5 7 8 10 12 12 12 11 9 10 11 10 10 9 7 9 14 17 19 19 17 15 14 16 17 16 14 11
2 1 3 3 4 5 6 9 11 8 2 -3 -2 3 6 6 3 -0 3 12 17 17 20 21 19 18 17 17 18 17 16 16 12 9 9 7 8 11 9 6 6 4 5 7 2 2 7 10 14 16 11 8 11 11 8 5 3 6 10 11 12 12 10 11 11 11 11 11 11 10 9 11 15 17 18 18 16 14 13 15 18 17 15 13 9
2 2 3 4 7 10 9 9 9 5 -1 -3 1 5 4 3 5 7 11 19 22 20 19 20 20 23 25 24 21 19 16 12 8 8 8 8 7 8 7 6 7 8 10 11 13 16 18 20 20 12 6 9 11 7 6 7 8 10 11 9 8 8 8 10 10 10 11 11 10 10 12 15 18 18 18 18 15 14 15 17 19 17 13 10 9
-0 4 7 9 9 7 6 8 7 5 6 6 4 2 2 3 7 13 19 24 24 20 19 20 20 19 19 17 13 13 12 9 6 7 9 9 7 6 9 12 13 12 13 15 16 15 16 20 20 10 7 12 12 11 12 12 11 11 10 10 12 12 11 11 10 10 10 10 10 13 14 16 17 17 18 18 15 15 17 17 17 14 10 9 10
13 16 12 4 -4 -5 -0 2 2 8 14 12 6 3 1 1 6 15 21 23 20 16 14 12 11 9 8 9 9 9 10 7 6 7 8 8 8 9 11 12 11 9 8 10 12 12 13 16 14 8 10 14 14 13 12 10 11 12 12 14 16 16 15 14 12 11 10 10 13 16 17 17 18 18 18 17 16 16 17 16 13 10 8 10 12
14 7 1 -1 -1 4 13 19 23 24 16 6 7 7 -1 -3 6 16 18 16 13 10 8 6 6 6 6 8 9 8 7 6 7 8 10 11 9 8 9 10 9 6 5 8 12 12 13 15 13 11 12 12 9 7 8 11 12 11 10 13 16 17 16 13 10 10 10 11 13 14 16 17 18 19 19 18 17 16 15 13 10 9 10 11 13
-2 -7 -2 8 13 14 16 23 27 20 7 3 9 7 -3 -2 10 16 14 11 8 6 5 4 5 6 8 9 8 6 6 8 8 8 11 11 6 5 10 12 9 5 6 12 16 14 13 14 13 11 9 7 6 7 9 11 8 6 10 15 16 15 13 10 10 11 11 12 14 15 17 18 18 20 20 18 16 15 14 11 9 10 12 12 14
-2 1 7 11 12 10 11 14 14 8 4 7 8 3 -2 4 14 17 11 6 4 3 3 3 5 6 8 7 5 6 6 4 4 9 14 11 4 6 11 9 5 7 12 18 19 15 11 11 9 7 7 6 5 7 7 7 6 10 16 18 15 14 13 11 12 12 13 17 19 18 18 19 20 21 19 16 15 14 12 10 9 11 13 13 13
4 6 9 9 6 4 5 8 9 7 6 6 4 1 2 7 14 17 10 2 2 4 3 4 6 7 7 7 7 8 6 4 12 20 17 6 1 5 9 8 9 14 17 20 20 12 7 8 6 4 5 5 5 7 7 8 13 18 19 17 13 12 12 12 13 15 17 18 15 13 16 19 20 19 16 15 14 13 11 10 9 11 13 13 14
2 5 9 7 3 2 3 4 6 7 7 7 5 2 4 9 13 15 9 3 5 8 7 7 8 7 8 9 9 8 7 10 17 15 3 -2 3 8 10 11 15 16 17 19 18 9 4 6 6 5 5 6 6 8 11 15 21 21 17 14 13 13 13 15 17 16 13 10 11 15 20 21 19 17 15 14 13 11 10 10 10 12 13 13 14
4 6 5 2 1 4 5 3 3 4 6 9 9 5 6 10 12 11 9 7 10 10 8 7 7 7 9 9 8 7 7 8 9 6 1 4 9 10 10 15 18 18 17 18 14 7 4 4 4 5 7 8 10 15 19 22 22 17 13 13 14 15 15 14 12 9 10 14 20 24 23 19 16 15 13 12 11 10 10 11 11 12 13 13 14
5 5 2 3 7 5 1 2 5 4 3 7 10 10 9 9 9 11 11 11 11 10 7 6 7 7 8 8 6 6 6 7 8 8 8 9 10 11 17 22 22 19 14 10 7 5 4 4 4 6 9 13 18 21 21 19 16 14 14 14 13 12 12 11 12 14 19 23 23 19 17 15 14 13 11 10 10 10 11 12 12 12 13 13 13
5 4 2 5 7 4 3 7 8 2 2 9 12 9 6 6 8 12 13 11 9 7 6 7 7 8 8 7 7 9 11 12 12 10 10 11 15 20 23 22 18 14 8 5 5 5 6 7 8 11 16 19 20 18 16 16 16 17 15 13 11 11 11 12 17 20 21 20 17 15 15 14 11 11 11 10 11 11 12 12 12 12 13 12 12
4 4 4 4 4 4 6 8 5 4 11 17 13 6 4 6 10 13 12 9 6 6 6 7 9 10 10 9 11 13 12 11 9 9 11 14 18 21 20 16 11 7 5 6 7 7 9 13 16 18 19 17 15 15 17 17 17 14 11 10 11 11 12 15 19 20 17 15 14 14 14 11 10 11 11 11 11 11 11 12 12 12 12 12 12
0 2 3 2 4 7 9 8 9 15 20 17 8 3 6 9 11 10 8 6 6 6 7 8 9 11 12 12 11 9 7 8 9 10 13 19 22 21 16 9 5 5 6 9 10 12 16 20 18 14 13 12 13 15 14 12 10 8 8 9 10 11 13 17 19 17 14 13 14 13 12 10 11 11 10 11 11 10 11 12 12 11 11 11 11
1 0 1 3 7 12 14 14 15 17 16 10 5 5 8 11 10 8 7 8 9 9 9 10 11 12 12 11 8 6 7 11 13 17 23 26 22 15 7 1 2 7 10 12 14 17 20 17 11 8 10 13 13 10 8 6 7 8 10 10 10 12 15 18 18 16 14 13 13 12 10 10 10 10 11 11 11 11 12 12 11 10 11 11 12
4 4 7 9 11 15 16 13 10 9 9 9 8 9 11 10 8 8 9 8 8 9 10 10 11 12 12 9 7 9 12 14 18 26 28 21 12 6 1 -0 6 12 15 17 18 18 15 11 8 10 13 13 10 7 8 10 12 13 13 13 12 13 16 18 18 15 14 13 12 11 10 10 9 10 11 11 11 11 12 11 11 10 10 10 12
7 8 10 10 12 16 13 8 5 7 11 13 11 11 11 8 6 7 8 6 9 14 14 11 12 12 9 6 9 13 14 14 20 25 19 10 8 6 1 3 11 17 18 17 15 12 11 10 10 11 11 9 9 11 13 15 16 16 16 15 15 17 18 18 17 15 14 13 12 11 10 10 9 10 11 11 11 11 10 10 11 10 10 10 11
6 7 8 11 13 12 8 6 8 11 13 12 10 9 8 6 5 5 5 7 13 15 11 9 11 10 7 10 15 17 13 11 14 14 9 7 9 6 3 10 18 19 16 13 10 9 10 11 11 12 12 12 15 17 18 19 19 18 17 17 17 18 18 17 17 15 13 13 12 11 10 9 9 10 11 11 11 10 9 9 10 10 10 11 10
5 6 10 13 12 9 9 11 14 13 11 9 8 8 7 5 5 6 8 12 15 14 11 11 10 9 11 14 14 12 12 14 17 18 16 15 11 8 10 18 19 14 11 10 9 10 11 11 13 16 17 19 20 21 21 20 19 18 18 18 17 17 17 17 16 14 13 13 12 10 10 10 10 10 10 10 10 9 9 9 9 9 10 11 11
7 9 13 14 13 12 13 13 11 9 7 7 7 6 6 6 9 12 15 17 16 15 13 9 6 9 14 13 12 17 22 22 23 24 20 15 12 14 18 18 14 11 11 10 10 12 14 16 19 20 19 20 21 20 18 18 17 16 16 16 16 17 16 15 15 14 13 12 11 11 10 10 10 10 9 9 9 9 9 9 9 9 10 11 11
8 9 11 11 11 10 10 8 7 7 7 8 8 8 10 13 15 15 15 14 11 10 6 1 4 14 17 15 18 22 17 11 15 19 17 14 17 19 18 14 11 11 11 12 13 16 17 19 20 19 16 15 16 16 15 15 15 15 15 15 16 16 15 15 15 13 13 13 12 11 11 10 10 10 9 8 9 9 9 10 10 10 10 10 11
9 9 9 9 9 8 8 8 8 9 10 10 12 14 16 16 15 12 11 10 8 6 2 1 9 19 20 17 17 13 5 7 19 25 23 21 20 16 13 12 12 14 14 15 16 18 17 17 17 16 15 14 14 14 15 14 14 15 15 14 15 15 14 14 14 13 13 13 11 11 11 10 9 9 9 9 9 10 10 10 11 11 11 11 11
14 13 12 12 11 10 11 11 11 13 15 15 16 17 15 13 11 10 10 9 6 5 6 12 21 25 21 14 9 7 11 21 28 25 20 18 15 13 14 15 15 15 15 15 15 15 14 12 12 13 15 16 16 16 16 15 15 15 16 16 15 14 14 14 14 13 13 12 11 11 11 10 9 10 10 10 10 11 10 10 11 11 11 11 11
14 13 13 12 12 13 14 14 14 16 16 15 14 11 8 7 8 8 8 9 10 12 18 23 24 20 14 9 11 18 27 28 22 16 14 15 16 17 17 15 13 13 13 12 12 12 12 11 11 13 14 15 17 17 17 17 16 16 17 18 18 17 16 15 14 14 13 12 12 11 11 11 11 11 11 12 11 11 11 10 10 11 11 10 11
13 13 13 14 15 15 15 14 14 13 12 10 9 8 8 10 12 13 15 16 17 19 20 17 10 8 13 20 27 32 30 22 14 12 14 17 18 16 12 10 10 11 10 10 11 11 11 11 12 12 14 15 16 16 16 16 16 16 17 18 18 18 18 17 16 16 15 14 13 12 11 12 12 10 11 11 9 9 10 9 10 11 11 10 11
15 15 14 14 14 13 12 12 11 10 9 10 11 12 13 15 17 19 19 17 16 14 11 7 5 10 18 23 23 20 17 13 11 13 15 16 14 10 8 9 10 9 9 11 11 11 11 10 10 12 13 14 15 16 16 16 16 15 15 15 15 16 16 15 15 15 13 12 12 11 10 10 10 10 10 10 10 11 13 13 14 15 15 13 12
13 12 11 10 10 10 9 10 10 10 12 13 13 14 15 15 16 15 12 9 10 9 6 7 12 16 16 14 13 13 14 14 13 13 13 12 9 7 8 9 9 8 10 11 10 9 9 9 8 9 10 10 12 14 15 16 17 17 15 14 13 12 12 11 11 11 10 10 10 10 10 11 11 11 11 13 15 17 19 21 22 22 21 19 17
10 10 10 10 11 11 11 13 14 15 15 15 15 15 14 13 12 10 6 7 10 11 10 12 14 12 10 13 15 15 14 15 15 14 12 9 8 9 8 7 8 9 10 9 8 8 8 7 7 7 7 7 8 10 11 13 15 16 16 16 15 13 12 12 11 11 12 11 11 12 12 12 12 14 16 19 21 22 22 22 23 24 24 24 22
11 12 12 13 15 15 16 16 15 14 14 15 14 14 13 12 11 11 11 14 17 19 18 14 10 9 13 17 16 13 14 16 15 12 9 8 9 8 7 7 8 8 7 6 6 6 6 6 6 7 6 6 6 6 7 8 10 12 14 16 16 16 15 14 13 13 13 13 12 12 12 13 16 19 20 20 19 18 18 18 18 21 23 24 24
13 14 14 14 14 14 14 14 14 13 14 14 13 11 10 11 11 13 15 16 16 15 13 11 12 15 18 15 12 13 17 18 14 10 8 9 9 8 6 7 7 6 4 5 5 4 4 5 6 6 6 7 6 6 6 6 6 8 9 11 13 15 16 17 16 15 14 13 12 12 14 18 21 21 19 17 16 16 16 16 16 17 20 22 22
13 13 13 14 14 14 14 14 14 13 11 9 8 8 9 10 12 13 13 14 14 13 13 15 17 17 14 11 12 17 19 16 13 10 8 8 9 8 7 6 6 5 5 5 4 3 4 5 4 5 6 6 7 7 7 6 5 6 6 8 10 12 13 15 16 17 15 13 12 14 17 21 21 17 14 14 15 15 15 15 15 15 16 18 19
14 15 15 15 14 13 12 11 10 10 9 9 10 11 11 11 12 12 13 14 15 15 15 15 14 12 12 15 19 21 18 14 11 8 7 8 9 9 8 7 6 5 5 5 5 5 5 4 5 5 5 5 7 8 8 8 7 6 5 6 7 9 11 13 14 16 16 14 13 15 20 21 18 13 12 12 12 13 13 14 14 15 16 17 18
Height
5890 5891 5891 5892 5892 5893 5893 5894 5895 5895 5895 5894 5893 5892 5892 5891 5891 5891 5890 5890 5890 5889 5889 5888 5886 5885 5883 5882 5880 5877 5875 5872 5870 5868 5867 5865 5864 5863 5863 5862 5862 5862 5861 5860 5859 5858 5857 5856 5855 5854 5854 5853 5852 5851 5851 5850 5850 5849 5849 5849 5848 5846 5845 5844 5843 5842 5840 5838 5836 5835 5834 5833 5832 5831 5830 5829 5828 5826 5825 5824 5822 5821 5819 5817 5815
5888 5888 5889 5889 5890 5891 5891 5892 5892 5892 5892 5891 5890 5890 5890 5890 5889 5889 5889 5889 5889 5888 5887 5886 5884 5883 5881 5880 5877 5874 5872 5870 5867 5865 5863 5862 5861 5860 5859 5858 5858 5858 5857 5856 5854 5853 5852 5851 5851 5850 5850 5849 5848 5847 5846 5845 5845 5845 5845 5845 5844 5843 5841 5840 5839 5838 5836 5834 5832 5830 5829 5828 5828 5826 5825 5824 5822 5820 5819 5818 5816 5814 5813 5811 5809
5885 5886 5886 5887 5888 5888 5889 5890 5890 5890 5889 5888 5888 5888 5888 5889 5889 5888 5888 5889 5888 5886 5885 5883 5882 5881 5879 5878 5875 5872 5869 5868 5865 5863 5861 5860 5858 5857 5856 5855 5854 5853 5852 5851 5849 5848 5847 5847 5846 5846 5845 5845 5844 5843 5842 5840 5840 5840 5840 5840 5840 5838 5837 5835 5834 5832 5831 5829 5828 5825 5824 5823 5821 5820 5819 5818 5816 5815 5813 5811 5809 5807 5806 5804 5802
5883 5883 5885 5885 5886 5886 5887 5887 5887 5887 5886 5886 5887 5887 5887 5888 5888 5887 5887 5887 5886 5884 5883 5881 5880 5878 5877 5875 5873 5870 5868 5866 5864 5861 5860 5858 5856 5854 5852 5851 5850 5849 5847 5846 5844 5843 5842 5842 5841 5841 5840 5840 5839 5838 5837 5836 5835 5835 5835 5834 5834 5834 5832 5831 5829 5827 5825 5824 5822 5820 5819 5818 5816 5813 5812 5811 5810 5808 5807 5805 5802 5800 5799 5797 5795
5881 5882 5882 5883 5884 5885 5885 5884 5884 5883 5884 5886 5886 5886 5886 5887 5886 5885 5885 5884 5884 5883 5881 5880 5877 5876 5875 5873 5871 5869 5867 5865 5862 5860 5858 5856 5854 5851 5849 5847 5845 5844 5843 5841 5840 5838 5837 5837 5836 5836 5835 5835 5834 5833 5831 5831 5831 5830 5829 5829 5829 5829 5827 5825 5823 5821 5819 5818 5816 5814 5813 5813 5811 5808 5806 5805 5803 5802 5800 5798 5796 5794 5792 5791 5789
5879 5880 5880 5881 5882 5882 5882 5881 5881 5882 5884 5885 5885 5885 5885 5885 5884 5883 5883 5882 5882 5881 5879 5877 5876 5874 5872 5871 5869 5867 5865 5863 5860 5858 5856 5853 5850 5848 5845 5843 5841 5839 5837 5836 5835 5833 5832 5831 5830 5830 5830 5830 5829 5827 5826 5826 5826 5825 5824 5824 5825 5824 5821 5818 5817 5815 5812 5811 5810 5808 5807 5806 5805 5803 5801 5799 5797 5794 5793 5791 5789 5787 5786 5784 5782
5877 5878 5879 5880 5880 5880 5879 5879 5881 5882 5883 5884 5883 5883 5883 5883 5882 5882 5881 5880 5879 5878 5876 5874 5873 5871 5869 5868 5866 5864 5862 5860 5858 5855 5853 5850 5847 5845 5842 5839 5837 5835 5832 5830 5829 5828 5827 5826 5825 5824 5824 5824 5823 5822 5821 5821 5821 5820 5820 5819 5819 5818 5815 5812 5811 5809 5807 5806 5805 5803 5802 5800 5799 5798 5795 5793 5791 5787 5785 5783 5782 5780 5779 5776 5774
5876 5877 5877 5878 5878 5878 5876 5878 5881 5882 5881 5881 5881 5881 5881 5881 5880 5879 5879 5878 5877 5875 5874 5872 5870 5868 5867 5865 5863 5862 5859 5857 5855 5852 5849 5847 5844 5842 5839 5836 5833 5830 5828 5826 5824 5823 5823 5822 5821 5819 5819 5819 5817 5817 5817 5816 5815 5815 5814 5813 5812 5811 5809 5807 5806 5804 5802 5801 5800 5798 5797 5796 5794 5792 5789 5787 5784 5781 5778 5776 5774 5773 5771 5769 5767
5874 5875 5876 5876 5876 5876 5876 5878 5880 5880 5879 5879 5878 5878 5879 5878 5878 5877 5876 5875 5874 5872 5871 5869 5867 5866 5864 5862 5860 5858 5856 5854 5851 5848 5846 5843 5840 5838 5836 5833 5830 5827 5824 5822 5820 5818 5817 5817 5816 5815 5815 5813 5811 5811 5811 5811 5810 5809 5807 5806 5805 5803 5803 5802 5801 5799 5797 5796 5795 5793 5791 5790 5789 5786 5782 5779 5777 5774 5772 5769 5768 5766 5764 5762 5761
5872 5873 5874 5874 5874 5874 5875 5876 5877 5877 5876 5875 5874 5874 5875 5875 5874 5873 5872 5871 5870 5869 5867 5866 5864 5862 5861 5859 5857 5855 5854 5852 5849 5845 5843 5840 5837 5835 5833 5830 5827 5824 5821 5819 5817 5814 5812 5812 5811 5810 5810 5808 5807 5806 5806 5805 5804 5802 5801 5799 5799 5797 5797 5796 5794 5793 5792 5790 5789 5788 5786 5784 5782 5779 5776 5773 5770 5767 5765 5763 5761 5760 5757 5756 5755
5870 5870 5871 5871 5872 5872 5873 5874 5874 5873 5873 5872 5871 5870 5870 5870 5870 5869 5868 5867 5866 5865 5864 5862 5861 5859 5857 5856 5854 5852 5851 5849 5846 5843 5839 5837 5834 5831 5829 5826 5823 5821 5818 5816 5813 5810 5808 5806 5805 5805 5805 5804 5803 5802 5801 5800 5799 5798 5796 5795 5793 5791 5790 5789 5787 5786 5786 5784 5783 5782 5779 5777 5774 5771 5769 5766 5763 5760 5758 5756 5754 5753 5751 5749 5749
5867 5868 5868 5869 5869 5870 5871 5871 5871 5870 5870 5870 5869 5867 5866 5866 5866 5865 5864 5863 5862 5861 5860 5858 5856 5855 5853 5851 5849 5848 5846 5845 5842 5839 5835 5833 5830 5827 5825 5822 5819 5817 5815 5812 5809 5806 5804 5802 5801 5800 5800 5800 5798 5797 5797 5796 5795 5793 5791 5789 5787 5785 5783 5782 5781 5780 5779 5778 5776 5774 5772 5770 5767 5764 5762 5759 5757 5754 5751 5749 5748 5746 5744 5743 5742
5865 5865 5866 5866 5867 5867 5867 5867 5867 5867 5867 5866 5865 5863 5862 5862 5861 5860 5859 5858 5858 5857 5855 5853 5852 5850 5848 5846 5843 5842 5840 5839 5838 5834 5831 5829 5826 5823 5821 5818 5815 5814 5812 5809 5806 5803 5801 5799 5797 5796 5796 5796 5794 5793 5792 5791 5789 5788 5786 5784 5782 5780 5778 5776 5775 5773 5771 5770 5769 5767 5765 5762 5760 5757 5755 5752 5750 5748 5745 5743 5742 5740 5738 5736 5735
5862 5863 5863 5863 5864 5865 5864 5864 5864 5863 5863 5862 5861 5860 5859 5858 5857 5855 5854 5853 5852 5851 5850 5848 5846 5844 5842 5840 5838 5836 5834 5833 5832 5830 5826 5824 5822 5819 5817 5814 5812 5810 5808 5805 5803 5800 5798 5796 5794 5793 5792 5791 5790 5789 5787 5786 5784 5782 5780 5778 5777 5775 5772 5771 5769 5767 5765 5764 5762 5760 5758 5755 5753 5751 5748 5745 5743 5741 5739 5737 5736 5733 5732 5730 5729
5859 5860 5860 5860 5861 5861 5861 5861 5860 5859 5859 5858 5857 5856 5855 5854 5852 5851 5850 5849 5848 5846 5844 5842 5841 5839 5837 5834 5832 5830 5828 5827 5826 5824 5821 5820 5818 5816 5813 5811 5808 5806 5804 5802 5799 5797 5795 5793 5792 5790 5789 5787 5786 5785 5783 5781 5779 5777 5775 5773 5771 5769 5767 5765 5763 5762 5760 5758 5756 5753 5751 5749 5747 5745 5742 5739 5737 5735 5733 5732 5730 5727 5725 5724 5723
5856 5856 5856 5857 5857 5858 5858 5857 5856 5855 5855 5854 5853 5852 5851 5850 5848 5847 5846 5844 5843 5842 5839 5837 5835 5833 5831 5828 5826 5824 5822 5821 5820 5818 5816 5815 5813 5811 5809 5806 5804 5802 5801 5798 5796 5793 5792 5791 5789 5787 5785 5784 5782 5779 5777 5775 5773 5772 5770 5768 5766 5764 5762 5760 5758 5756 5754 5751 5749 5746 5745 5743 5741 5738 5736 5733 5731 5729 5727 5726 5723 5721 5720 5719 5718
5852 5852 5852 5853 5853 5853 5853 5852 5852 5851 5851 5850 5849 5848 5847 5846 5844 5843 5841 5840 5838 5836 5833 5831 5829 5827 5824 5822 5820 5818 5816 5815 5814 5812 5811 5810 5809 5806 5804 5801 5800 5799 5797 5794 5792 5790 5789 5787 5786 5784 5782 5779 5777 5774 5772 5770 5768 5766 5764 5762 5761 5759 5756 5754 5752 5750 5748 5746 5743 5741 5739 5737 5735 5732 5729 5726 5724 5722 5720 5719 5717 5715 5714 5713 5712
5848 5848 5849 5849 5849 5849 5849 5848 5848 5847 5847 5846 5846 5844 5843 5841 5840 5838 5836 5834 5832 5830 5827 5824 5822 5820 5818 5816 5815 5813 5810 5809 5808 5807 5806 5805 5803 5802 5800 5797 5796 5795 5793 5791 5789 5787 5785 5783 5781 5779 5776 5774 5771 5769 5767 5765 5763 5761 5759 5757 5755 5753 5751 5748 5746 5744 5742 5740 5738 5736 5733 5731 5729 5726 5724 5720 5717 5715 5714 5713 5711 5709 5708 5706 5705
5844 5844 5844 5845 5845 5845 5844 5844 5844 5843 5843 5842 5841 5840 5838 5836 5835 5833 5830 5828 5826 5824 5821 5818 5815 5813 5812 5810 5809 5808 5805 5804 5803 5802 5801 5801 5799 5797 5795 5794 5792 5791 5790 5788 5785 5783 5781 5780 5776 5774 5771 5769 5766 5764 5762 5760 5758 5756 5754 5752 5750 5748 5745 5743 5741 5738 5736 5734 5732 5730 5728 5726 5723 5720 5717 5715 5712 5710 5709 5707 5705 5704 5702 5701 5698
5840 5840 5840 5840 5840 5840 5840 5840 5839 5839 5838 5837 5836 5835 5833 5831 5830 5827 5825 5823 5820 5817 5814 5812 5809 5808 5806 5804 5804 5802 5800 5799 5799 5798 5797 5796 5794 5792 5791 5790 5788 5787 5786 5784 5782 5779 5778 5776 5772 5769 5766 5764 5761 5759 5757 5755 5752 5750 5748 5746 5744 5742 5740 5737 5735 5733 5731 5728 5726 5724 5722 5719 5716 5714 5711 5709 5707 5705 5704 5702 5701 5698 5697 5695 5693
5837 5837 5837 5836 5836 5835 5835 5834 5833 5833 5832 5832 5831 5830 5828 5826 5824 5821 5819 5817 5814 5811 5809 5807 5804 5802 5801 5800 5798 5797 5796 5795 5794 5794 5793 5791 5789 5788 5786 5785 5784 5782 5781 5779 5777 5775 5774 5771 5767 5764 5761 5759 5756 5754 5752 5750 5747 5745 5743 5741 5739 5736 5734 5731 5729 5727 5724 5722 5720 5718 5715 5713 5710 5708 5706 5704 5701 5700 5699 5697 5695 5693 5691 5689 5687
5833 5833 5833 5833 5832 5831 5830 5829 5828 5827 5827 5827 5826 5824 5823 5821 5818 5816 5813 5811 5808 5806 5804 5802 5800 5798 5797 5796 5794 5793 5793 5791 5790 5789 5788 5786 5784 5782 5781 5780 5778 5776 5775 5773 5771 5770 5769 5766 5762 5758 5755 5753 5751 5749 5747 5745 5743 5740 5738 5735 5733 5730 5728 5725 5723 5720 5718 5716 5714 5712 5709 5707 5705 5702 5700 5699 5697 5695 5694 5692 5690 5688 5686 5684 5682
5829 5829 5829 5828 5828 5827 5826 5824 5823 5822 5822 5821 5820 5819 5817 5815 5813 5810 5808 5805 5803 5801 5799 5798 5797 5795 5794 5792 5791 5790 5789 5787 5786 5784 5782 5780 5779 5777 5775 5774 5772 5770 5769 5767 5765 5764 5762 5759 5756 5752 5750 5747 5745 5743 5741 5739 5737 5734 5732 5729 5726 5724 5721 5719 5716 5714 5712 5710 5708 5706 5703 5701 5699 5697 5695 5694 5692 5690 5689 5687 5685 5683 5681 5679 5677
5823 5823 5823 5823 5823 5822 5821 5819 5818 5817 5817 5816 5814 5813 5812 5810 5808 5805 5803 5801 5798 5797 5795 5794 5793 5791 5790 5788 5787 5786 5785 5783 5781 5779 5777 5775 5774 5772 5770 5768 5767 5765 5763 5761 5760 5757 5755 5753 5749 5746 5744 5742 5740 5738 5735 5733 5730 5728 5725 5722 5720 5717 5715 5713 5711 5709 5707 5704 5702 5700 5697 5695 5693 5692 5690 5689 5687 5685 5684 5682 5680 5678 5677 5675 5672
5818 5818 5819 5819 5818 5817 5816 5814 5813 5812 5811 5810 5809 5808 5807 5805 5803 5801 5799 5797 5795 5793 5791 5790 5789 5787 5786 5785 5783 5782 5780 5778 5776 5774 5772 5770 5769 5767 5765 5763 5761 5759 5757 5755 5753 5750 5748 5745 5743 5740 5738 5736 5734 5732 5730 5727 5724 5721 5718 5716 5713 5711 5709 5707 5705 5703 5701 5699 5696 5694 5692 5690 5689 5687 5685 5684 5682 5681 5679 5677 5676 5674 5672 5670 5668
5813 5813 5814 5813 5813 5812 5811 5809 5808 5807 5806 5805 5804 5803 5801 5800 5798 5796 5794 5793 5791 5789 5787 5785 5784 5783 5781 5780 5778 5776 5775 5773 5771 5769 5767 5765 5763 5761 5759 5757 5755 5753 5752 5749 5746 5743 5740 5738 5736 5733 5732 5730 5728 5726 5724 5721 5718 5715 5712 5709 5707 5705 5704 5702 5700 5698 5695 5693 5691 5689 5687 5686 5684 5682 5681 5679 5677 5676 5675 5673 5671 5669 5667 5665 5664
5808 5808 5808 5807 5806 5806 5805 5804 5802 5801 5800 5799 5798 5797 5796 5795 5793 5791 5790 5788 5786 5784 5782 5781 5779 5778 5776 5775 5773 5771 5769 5768 5766 5764 5762 5760 5758 5755 5753 5751 5749 5748 5746 5744 5740 5736 5734 5732 5729 5728 5726 5724 5722 5720 5717 5715 5712 5709 5706 5703 5702 5700 5698 5697 5695 5693 5691 5688 5686 5685 5683 5681 5679 5677 5676 5674 5673 5671 5670 5668 5667 5665 5663 5661 5660
5803 5803 5802 5801 5800 5800 5799 5798 5797 5796 5794 5793 5792 5791 5790 5789 5788 5786 5785 5783 5781 5779 5777 5776 5775 5773 5771 5770 5768 5766 5764 5762 5761 5759 5757 5754 5752 5750 5748 5746 5744 5742 5740 5738 5734 5731 5728 5726 5724 5722 5720 5718 5716 5713 5711 5709 5706 5704 5701 5699 5697 5695 5694 5692 5690 5688 5686 5684 5682 5680 5678 5676 5675 5673 5671 5670 5668 5667 5665 5664 5662 5661 5659 5657 5656
5797 5797 5796 5795 5794 5793 5793 5792 5791 5790 5788 5787 5786 5785 5784 5783 5782 5781 5779 5778 5776 5774 5772 5771 5770 5768 5766 5764 5762 5760 5758 5756 5755 5754 5751 5748 5746 5745 5742 5740 5738 5735 5733 5732 5730 5727 5724 5721 5718 5716 5714 5712 5710 5708 5706 5703 5701 5699 5697 5695 5693 5691 5689 5687 5685 5684 5682 5680 5678 5676 5674 5672 5670 5669 5667 5666 5664 5663 5662 5660 5659 5657 5655 5654 5652
5791 5791 5790 5789 5788 5787 5787 5786 5785 5783 5782 5781 5780 5779 5778 5777 5776 5775 5774 5772 5771 5769 5767 5766 5764 5762 5760 5758 5756 5755 5753 5751 5750 5748 5746 5743 5740 5739 5737 5735 5732 5730 5727 5726 5724 5722 5719 5716 5712 5710 5708 5706 5704 5702 5700 5698 5695 5693 5691 5690 5688 5686 5684 5683 5681 5679 5677 5676 5674 5672 5670 5668 5667 5665 5664 5662 5661 5659 5658 5657 5655 5653 5652 5650 5649
5785 5784 5783 5782 5782 5781 5781 5779 5778 5777 5776 5776 5774 5773 5772 5771 5771 5769 5768 5767 5765 5763 5761 5760 5758 5757 5755 5752 5750 5749 5748 5746 5744 5743 5740 5738 5735 5733 5731 5730 5728 5726 5723 5720 5717 5715 5712 5710 5707 5705 5703 5701 5699 5697 5694 5692 5690 5688 5686 5685 5683 5681 5679 5678 5676 5674 5673 5671 5670 5668 5666 5665 5663 5662 5661 5659 5658 5656 5655 5653 5651 5650 5648 5646 5645
5778 5777 5776 5776 5776 5775 5774 5773 5772 5771 5770 5770 5769 5767 5766 5766 5765 5764 5762 5761 5759 5757 5756 5754 5752 5751 5749 5747 5745 5744 5742 5741 5739 5737 5734 5733 5730 5729 5727 5725 5723 5720 5717 5714 5711 5709 5707 5705 5702 5700 5699 5697 5694 5692 5690 5687 5686 5684 5682 5680 5678 5677 5675 5673 5672 5670 5669 5668 5666 5664 5663 5662 5660 5659 5657 5656 5655 5653 5651 5650 5648 5646 5645 5643 5641
5771 5771 5770 5770 5769 5768 5767 5766 5765 5764 5764 5763 5763 5761 5760 5760 5759 5758 5756 5755 5753 5751 5750 5748 5747 5745 5743 5742 5740 5738 5737 5735 5733 5731 5729 5727 5725 5723 5721 5719 5717 5714 5711 5709 5706 5704 5702 5700 5697 5696 5694 5692 5690 5688 5686 5684 5682 5680 5678 5676 5674 5672 5671 5669 5668 5667 5665 5664 5663 5661 5660 5659 5657 5656 5654 5653 5652 5650 5648 5647 5645 5643 5641 5640 5638
5765 5765 5764 5764 5763 5761 5760 5759 5758 5757 5757 5757 5756 5755 5755 5754 5753 5752 5750 5749 5748 5746 5744 5743 5741 5740 5739 5737 5735 5733 5731 5729 5727 5725 5723 5721 5719 5717 5716 5714 5711 5709 5706 5704 5701 5700 5698 5696 5693 5692 5690 5688 5686 5683 5681 5679 5678 5676 5674 5672 5670 5668 5667 5665 5664 5663 5662 5661 5659 5658 5657 5655 5654 5653 5651 5650 5648 5647 5645 5644 5642 5641 5639 5637 5636
5759 5759 5759 5758 5757 5755 5754 5753 5752 5751 5751 5751 5750 5750 5749 5748 5747 5745 5744 5744 5742 5740 5739 5737 5736 5735 5734 5732 5730 5728 5726 5724 5721 5719 5717 5715 5713 5712 5710 5708 5706 5704 5702 5699 5697 5696 5694 5691 5688 5687 5685 5683 5681 5679 5677 5675 5673 5671 5669 5667 5666 5664 5663 5662 5661 5660 5658 5657 5656 5655 5653 5652 5651 5650 5648 5647 5645 5644 5642 5641 5639 5638 5636 5635 5633
5753 5753 5752 5751 5750 5749 5748 5748 5747 5746 5745 5745 5745 5744 5744 5743 5741 5740 5739 5738 5737 5735 5733 5732 5731 5729 5727 5726 5724 5722 5720 5718 5716 5714 5713 5711 5709 5707 5705 5703 5701 5699 5697 5695 5693 5692 5689 5687 5684 5682 5680 5678 5676 5674 5672 5670 5668 5666 5665 5663 5662 5660 5659 5658 5657 5656 5655 5654 5652 5651 5650 5649 5648 5647 5645 5644 5643 5641 5639 5638 5637 5635 5633 5632 5630
5747 5746 5746 5745 5744 5743 5743 5743 5742 5741 5740 5740 5740 5739 5738 5737 5736 5735 5733 5732 5732 5730 5727 5725 5724 5723 5721 5719 5717 5715 5714 5713 5711 5709 5708 5706 5704 5702 5700 5698 5696 5694 5692 5691 5689 5687 5685 5683 5681 5678 5676 5674 5672 5670 5668 5666 5664 5662 5661 5659 5658 5657 5655 5655 5654 5653 5651 5650 5649 5648 5647 5646 5645 5644 5642 5641 5640 5638 5637 5635 5634 5632 5630 5629 5628
5740 5740 5739 5739 5738 5738 5737 5736 5736 5735 5735 5735 5734 5733 5732 5731 5730 5729 5727 5726 5725 5724 5721 5720 5718 5716 5715 5713 5712 5710 5709 5708 5706 5704 5703 5701 5699 5697 5695 5693 5691 5689 5688 5686 5685 5683 5681 5679 5677 5675 5672 5670 5668 5666 5664 5662 5660 5658 5657 5656 5655 5653 5652 5651 5650 5649 5648 5647 5646 5644 5643 5642 5641 5641 5639 5638 5637 5635 5634 5632 5631 5629 5628 5626 5625
5734 5733 5733 5733 5732 5732 5731 5730 5730 5729 5729 5729 5728 5727 5726 5725 5723 5722 5721 5720 5718 5717 5716 5714 5713 5711 5709 5708 5707 5705 5704 5703 5701 5700 5698 5696 5694 5692 5690 5689 5687 5686 5684 5682 5680 5678 5677 5675 5673 5671 5668 5666 5664 5662 5660 5658 5656 5655 5653 5652 5651 5650 5649 5648 5647 5646 5645 5643 5642 5641 5640 5639 5639 5638 5636 5635 5634 5632 5631 5629 5628 5626 5625 5623 5622
5728 5728 5728 5727 5727 5726 5725 5725 5724 5724 5723 5723 5722 5721 5720 5719 5717 5716 5715 5714 5712 5712 5711 5709 5708 5707 5704 5702 5701 5701 5700 5698 5697 5695 5693 5691 5689 5688 5686 5685 5683 5682 5680 5678 5677 5675 5674 5672 5669 5667 5664 5662 5660 5658 5656 5655 5653 5652 5650 5649 5648 5647 5646 5645 5644 5642 5641 5640 5639 5638 5637 5636 5636 5635 5633 5632 5631 5629 5628 5626 5625 5624 5622 5621 5619
5722 5722 5722 5721 5721 5721 5720 5720 5719 5719 5717 5717 5716 5715 5714 5713 5712 5711 5709 5708 5707 5706 5705 5704 5703 5703 5699 5696 5696 5696 5695 5693 5691 5690 5687 5686 5685 5684 5683 5681 5679 5678 5677 5675 5674 5672 5670 5668 5666 5664 5661 5659 5657 5655 5653 5652 5650 5649 5647 5646 5645 5644 5643 5642 5640 5639 5638 5637 5636 5635 5634 5633 5632 5631 5630 5629 5628 5626 5625 5623 5622 5621 5619 5618 5616
5717 5717 5716 5716 5716 5715 5715 5714 5714 5713 5712 5711 5711 5710 5709 5708 5707 5705 5704 5703 5702 5700 5699 5698 5698 5697 5695 5693 5692 5691 5689 5687 5686 5684 5683 5682 5681 5680 5679 5677 5676 5674 5673 5672 5671 5669 5667 5665 5663 5661 5659 5657 5655 5653 5651 5650 5648 5646 5645 5644 5642 5641 5640 5639 5638 5636 5635 5634 5633 5632 5631 5630 5629 5628 5627 5626 5624 5623 5622 5620 5619 5618 5616 5615 5614
5711 5711 5710 5710 5710 5710 5709 5708 5708 5707 5706 5706 5705 5704 5703 5702 5701 5700 5698 5697 5696 5694 5693 5692 5692 5691 5689 5689 5688 5686 5684 5682 5681 5680 5679 5678 5677 5676 5675 5674 5672 5671 5670 5668 5667 5666 5664 5662 5660 5659 5657 5655 5653 5651 5649 5648 5646 5644 5643 5641 5640 5638 5637 5636 5635 5634 5633 5632 5631 5630 5629 5627 5626 5625 5624 5623 5621 5620 5619 5617 5616 5615 5613 5612 5611
5705 5705 5705 5704 5704 5704 5703 5702 5702 5702 5701 5700 5699 5698 5697 5696 5695 5694 5692 5691 5690 5689 5688 5688 5687 5686 5685 5684 5683 5681 5679 5678 5677 5676 5675 5674 5673 5672 5671 5669 5669 5668 5667 5666 5665 5663 5661 5660 5658 5656 5655 5653 5651 5649 5647 5646 5644 5642 5641 5639 5638 5636 5635 5634 5633 5631 5630 5629 5628 5627 5626 5624 5623 5622 5621 5619 5618 5617 5615 5614 5613 5611 5610 5609 5608
5699 5699 5699 5698 5698 5698 5697 5697 5696 5696 5695 5694 5693 5692 5692 5690 5689 5688 5687 5686 5685 5684 5683 5683 5682 5681 5680 5679 5678 5676 5675 5674 5673 5672 5671 5671 5670 5668 5667 5666 5666 5665 5665 5664 5662 5660 5659 5658 5656 5655 5653 5651 5650 5648 5646 5644 5642 5641 5639 5637 5636 5634 5633 5632 5630 5629 5628 5627 5625 5624 5623 5622 5620 5619 5618 5616 5615 5613 5612 5610 5609 5608 5607 5606 5605
5693 5693 5693 5692 5692 5692 5691 5691 5691 5690 5689 5688 5688 5687 5686 5685 5684 5683 5682 5681 5680 5679 5678 5678 5677 5676 5675 5674 5673 5672 5671 5670 5669 5668 5668 5667 5666 5665 5664 5664 5663 5663 5662 5661 5660 5658 5657 5656 5655 5653 5652 5650 5648 5646 5644 5643 5641 5639 5637 5636 5634 5632 5631 5630 5628 5627 5626 5624 5623 5622 5620 5619 5618 5616 5614 5613 5611 5610 5608 5607 5605 5604 5603 5602 5602
5687 5686 5686 5686 5686 5686 5685 5685 5684 5684 5683 5682 5682 5681 5680 5679 5678 5677 5677 5676 5675 5674 5673 5673 5672 5671 5670 5670 5669 5668 5667 5667 5666 5665 5664 5664 5663 5662 5662 5661 5661 5660 5659 5659 5658 5657 5655 5654 5653 5652 5650 5648 5647 5645 5643 5641 5639 5637 5635 5634 5632 5630 5629 5627 5626 5624 5623 5622 5620 5619 5618 5616 5615 5613 5611 5610 5608 5606 5605 5603 5602 5601 5600 5599 5599
5681 5680 5681 5681 5680 5680 5679 5679 5679 5678 5677 5677 5676 5676 5675 5674 5672 5672 5671 5670 5670 5669 5668 5668 5667 5666 5666 5665 5665 5664 5664 5663 5662 5661 5661 5661 5660 5660 5659 5659 5658 5658 5657 5656 5655 5654 5653 5652 5650 5649 5648 5646 5644 5643 5641 5639 5637 5635 5634 5632 5630 5628 5627 5625 5623 5622 5620 5619 5618 5616 5615 5613 5612 5610 5609 5607 5606 5604 5603 5601 5600 5599 5597 5596 5596
5675 5675 5675 5675 5675 5674 5674 5674 5673 5673 5672 5672 5671 5670 5669 5668 5667 5666 5665 5665 5665 5664 5663 5663 5662 5662 5661 5661 5661 5660 5660 5659 5658 5658 5657 5657 5657 5657 5656 5656 5656 5655 5654 5654 5653 5652 5650 5649 5648 5647 5645 5644 5642 5640 5639 5637 5635 5633 5631 5630 5628 5626 5624 5623 5621 5619 5618 5617 5615 5614 5612 5611 5609 5608 5606 5605 5604 5602 5601 5600 5598 5597 5596 5595 5594
5669 5669 5669 5669 5669 5669 5668 5668 5668 5667 5667 5666 5666 5665 5664 5663 5662 5661 5660 5660 5660 5659 5659 5658 5658 5657 5657 5657 5657 5656 5656 5655 5654 5654 5654 5654 5654 5654 5654 5653 5653 5652 5651 5650 5649 5648 5647 5646 5645 5644 5642 5641 5639 5638 5636 5634 5633 5631 5629 5627 5626 5624 5622 5621 5619 5617 5616 5614 5613 5612 5610 5609 5607 5606 5605 5604 5602 5601 5600 5599 5598 5596 5595 5594 5593
5664 5664 5664 5664 5664 5664 5663 5663 5662 5662 5662 5661 5660 5660 5659 5658 5657 5657 5656 5655 5655 5655 5654 5654 5654 5653 5653 5653 5652 5652 5652 5651 5651 5651 5650 5650 5651 5651 5651 5650 5650 5649 5648 5647 5646 5645 5644 5643 5642 5640 5639 5638 5636 5635 5633 5632 5630 5628 5627 5625 5624 5622 5620 5619 5617 5615 5614 5612 5611 5609 5608 5607 5606 5605 5604 5603 5602 5601 5599 5598 5597 5596 5594 5593 5592